{"data":{"norad_id":55836,"intl_designator":"2023-030A","name":"TIANHUI 6A","alt_names":[],"object_type":"PAYLOAD","status":"ACTIVE","operator":null,"country":"PRC","launch_date":"2023-03-09","launch_site_code":"TAISC","launch_vehicle":null,"mission":null,"orbit_class":"UNKNOWN","rcs_meters":null,"size_class":null,"mass_kg":null,"dimensions":null,"purposes":[],"wikipedia_slug":null,"has_3d_model":false,"image_url":null,"decayed_at":null,"tle_current":{"epoch":"2026-09-21T23:14:43.408608Z","epoch_age_seconds":54381,"freshness":"FRESH","line1":"1 55836U 23030A   26264.96855797 -.00000023  00000+0  13853-4 0  9990","line2":"2 55836  99.0124 272.0112 0003208 121.4217 238.7262 14.01326478180959","mean_motion":14.01326478,"eccentricity":0.0003208,"inclination_deg":99.0124,"raan_deg":272.0112,"arg_perigee_deg":121.4217,"mean_anomaly_deg":238.7262,"bstar":1.3853e-5,"rev_number":18095,"period_min":102.75977958079,"perigee_km":886.87404001836,"apogee_km":891.53676690442,"semimajor_km":7267.3424034614,"source":"CELESTRAK","updated_at":"2026-09-22T09:00:25.589034Z"}}}